Provincetown, MA

9:01 PM EDT on April 30, 2017 (GMT -0400)
Provincetown Municipal

Weather History for KPVC - February, 2013

Change the Weather History Date:

Sunday, February 10, 2013

  Actual Average Record
Temperature  
Mean Temperature 26 °F -  
Max Temperature 32 °F 35 °F 49 °F (1955)
Min Temperature 21 °F 24 °F 15 °F (2002)
Degree Days  
Heating Degree Days 38    
Moisture  
Dew Point 18 °F    
Average Humidity 71    
Maximum Humidity 100    
Minimum Humidity 51    
Precipitation  
Precipitation 0.00 in - - ()
Sea Level Pressure  
Sea Level Pressure 30.31 in    
Wind  
Wind Speed 18 mph (WNW)    
Max Wind Speed 29 mph    
Max Gust Speed 37 mph    
Visibility 10 miles    
Events      
Averages and records for this station are not official NWS values.
T = Trace of Precipitation, MM = Missing Value Source: NWS Daily Summary

Daily Weather History Graph

Daily Weather History Graph

Search for Another Location

Airport or City:

Trip Planner

Search our weather history database for the weather conditions in past years. The results will help you decide how hot, cold, wet, or windy it might be!

Date:

Astronomy

Feb. 10, 2013 Rise Set
Actual Time 6:43 AM EST 5:07 PM EST
Civil Twilight 6:14 AM EST 5:36 PM EST
Nautical Twilight 5:41 AM EST 6:09 PM EST
Astronomical Twilight 5:08 AM EST 6:42 PM EST
Moon 6:29 AM EST (2/10) 5:56 PM EST (2/10)
Length of Visible Light 11h 22m
Length of Day
10h 24m
New Moon, 0% of the Moon is Illuminated
Feb 10
New Moon
Feb 17
First Quarter
Feb 25
Full
Mar 4
Last Quarter
Mar 11
New

Hourly Weather History & Observations

Time (EST) Temp. Windchill Dew Point Humidity Pressure Visibility Wind Dir Wind Speed Gust Speed Precip Events Conditions
12:15 AM 23.0 °F 5.7 °F 17.6 °F 80% 30.11 in - NNW 28.8 mph 36.8 mph N/A   Unknown
12:35 AM 23.0 °F 6.9 °F 15.8 °F 74% 30.12 in - NNW 24.2 mph 34.5 mph N/A   Unknown
12:55 AM 23.0 °F 7.2 °F 15.8 °F 74% 30.13 in - NNW 23.0 mph 35.7 mph N/A   Unknown
1:15 AM 23.0 °F 6.9 °F 15.8 °F 74% 30.14 in - NNW 24.2 mph 33.4 mph N/A   Unknown
1:35 AM 23.0 °F 6.6 °F 15.8 °F 74% 30.15 in - NNW 25.3 mph 32.2 mph N/A   Unknown
1:55 AM 21.2 °F 4.2 °F 15.8 °F 80% 30.16 in - NNW 25.3 mph 33.4 mph N/A   Unknown
2:15 AM 21.2 °F 5.2 °F 14.0 °F 74% 30.17 in - NNW 21.9 mph 32.2 mph N/A   Unknown
2:35 AM 23.0 °F 6.3 °F 14.0 °F 68% 30.18 in - NNW 26.5 mph 32.2 mph N/A   Unknown
2:55 AM 23.0 °F 6.9 °F 15.8 °F 74% 30.18 in - NNW 24.2 mph 32.2 mph N/A   Unknown
3:15 AM 23.0 °F 7.2 °F 17.6 °F 80% 30.19 in - NNW 23.0 mph 32.2 mph N/A   Unknown
3:35 AM 23.0 °F 8.0 °F 19.4 °F 86% 30.19 in - NNW 20.7 mph 27.6 mph N/A   Unknown
3:55 AM 23.0 °F 7.6 °F 17.6 °F 80% 30.20 in - NNW 21.9 mph 28.8 mph N/A   Unknown
4:15 AM 24.8 °F 10.3 °F 17.6 °F 74% 30.20 in - NNW 20.7 mph 29.9 mph N/A   Unknown
4:35 AM 24.8 °F 11.5 °F 17.6 °F 74% 30.22 in - NNW 17.3 mph 27.6 mph N/A   Unknown
4:55 AM 24.8 °F 9.6 °F 19.4 °F 80% 30.22 in - NNW 23.0 mph 29.9 mph N/A   Unknown
5:15 AM 26.6 °F 12.0 °F 19.4 °F 74% 30.23 in - NNW 23.0 mph 32.2 mph N/A   Unknown
5:35 AM 24.8 °F 10.7 °F 19.4 °F 80% 30.25 in - NNW 19.6 mph 26.5 mph N/A   Unknown
5:55 AM 24.8 °F 10.3 °F 17.6 °F 74% 30.26 in - NW 20.7 mph 27.6 mph N/A   Unknown
6:15 AM 23.0 °F 8.0 °F 15.8 °F 74% 30.27 in - NNW 20.7 mph 27.6 mph N/A   Unknown
6:35 AM 23.0 °F 8.7 °F 15.8 °F 74% 30.28 in - NNW 18.4 mph 26.5 mph N/A   Unknown
6:55 AM 23.0 °F 8.3 °F 15.8 °F 74% 30.29 in - NNW 19.6 mph 27.6 mph N/A   Unknown
7:15 AM 23.0 °F 8.3 °F 15.8 °F 74% 30.30 in - NNW 19.6 mph 27.6 mph N/A   Unknown
7:35 AM 23.0 °F 8.7 °F 15.8 °F 74% 30.31 in - NNW 18.4 mph 25.3 mph N/A   Unknown
7:55 AM 24.8 °F 10.7 °F 15.8 °F 69% 30.32 in - NNW 19.6 mph 27.6 mph N/A   Unknown
8:15 AM 24.8 °F 10.3 °F 15.8 °F 69% 30.33 in - NNW 20.7 mph 25.3 mph N/A   Unknown
8:35 AM 24.8 °F 11.5 °F 15.8 °F 69% 30.34 in - NNW 17.3 mph 25.3 mph N/A   Unknown
8:55 AM 24.8 °F 10.7 °F 15.8 °F 69% 30.34 in 10.0 mi NNW 19.6 mph 24.2 mph N/A   Unknown
9:15 AM 24.8 °F 11.9 °F 14.0 °F 64% 30.35 in 10.0 mi NNW 16.1 mph 27.6 mph N/A   Unknown
9:35 AM 26.6 °F 14.3 °F 14.0 °F 59% 30.36 in 10.0 mi NNW 16.1 mph 23.0 mph N/A   Unknown
9:55 AM 26.6 °F 14.3 °F 15.8 °F 64% 30.37 in 10.0 mi NNW 16.1 mph 23.0 mph N/A   Unknown
10:15 AM 26.6 °F 13.8 °F 14.0 °F 59% 30.37 in 10.0 mi NNW 17.3 mph 23.0 mph N/A   Unknown
10:35 AM 28.4 °F 16.6 °F 14.0 °F 55% 30.37 in 10.0 mi NNW 16.1 mph 21.9 mph N/A   Unknown
10:55 AM 28.4 °F 17.5 °F 15.8 °F 59% 30.38 in 10.0 mi North 13.8 mph 19.6 mph N/A   Unknown
11:15 AM 28.4 °F 16.6 °F 15.8 °F 59% 30.37 in 10.0 mi NNW 16.1 mph - N/A   Unknown
11:35 AM 28.4 °F 17.0 °F 17.6 °F 64% 30.37 in 10.0 mi NNW 15.0 mph 19.6 mph N/A   Unknown
11:55 AM 28.4 °F 16.6 °F 19.4 °F 69% 30.36 in 10.0 mi NNW 16.1 mph 19.6 mph N/A   Unknown
12:15 PM 28.4 °F 17.5 °F 17.6 °F 64% 30.36 in 10.0 mi NW 13.8 mph 18.4 mph N/A   Unknown
12:35 PM 30.2 °F 19.8 °F 19.4 °F 64% 30.35 in 10.0 mi NW 13.8 mph 18.4 mph N/A   Unknown
12:55 PM 30.2 °F 20.2 °F 17.6 °F 60% 30.36 in - NW 12.7 mph - N/A   Unknown
1:15 PM 30.2 °F 20.8 °F 17.6 °F 60% 30.36 in 10.0 mi NW 11.5 mph 17.3 mph N/A   Unknown
1:35 PM 30.2 °F 19.8 °F 15.8 °F 55% 30.35 in 10.0 mi WNW 13.8 mph 17.3 mph N/A   Unknown
1:55 PM 30.2 °F 19.8 °F 17.6 °F 60% 30.35 in 10.0 mi WNW 13.8 mph - N/A   Unknown
2:15 PM 30.2 °F 20.2 °F 17.6 °F 60% 30.34 in 10.0 mi WNW 12.7 mph - N/A   Unknown
2:35 PM 30.2 °F 21.3 °F 17.6 °F 60% 30.34 in 10.0 mi NW 10.4 mph - N/A   Unknown
2:55 PM 32.0 °F 22.5 °F 17.6 °F 55% 30.34 in 10.0 mi WNW 12.7 mph - N/A   Unknown
3:15 PM 32.0 °F 23.0 °F 15.8 °F 51% 30.35 in 10.0 mi WNW 11.5 mph 16.1 mph N/A   Unknown
3:35 PM 32.0 °F 24.2 °F 15.8 °F 51% 30.35 in 10.0 mi West 9.2 mph - N/A   Unknown
3:55 PM 32.0 °F 23.6 °F 17.6 °F 55% 30.37 in 10.0 mi West 10.4 mph - N/A   Unknown
4:15 PM 32.0 °F 24.2 °F 17.6 °F 55% 30.37 in 10.0 mi West 9.2 mph - N/A   Unknown
4:35 PM 32.0 °F 24.2 °F 17.6 °F 55% 30.38 in 10.0 mi West 9.2 mph - N/A   Unknown
4:55 PM 30.2 °F 23.4 °F 17.6 °F 60% 30.37 in 10.0 mi WSW 6.9 mph - N/A   Unknown
5:15 PM 30.2 °F 24.3 °F 19.4 °F 64% 30.36 in 10.0 mi WSW 5.8 mph - N/A   Unknown
5:35 PM 28.4 °F 23.3 °F 21.2 °F 74% 30.36 in 10.0 mi WSW 4.6 mph - N/A   Unknown
5:55 PM 28.4 °F 21.2 °F 21.2 °F 74% 30.37 in 10.0 mi West 6.9 mph - N/A   Unknown
6:15 PM 28.4 °F 22.2 °F 21.2 °F 74% 30.38 in 10.0 mi SW 5.8 mph - N/A   Unknown
6:35 PM 26.6 °F 20.0 °F 19.4 °F 74% 30.38 in 10.0 mi SW 5.8 mph - N/A   Unknown
6:55 PM 26.6 °F 20.0 °F 21.2 °F 80% 30.37 in 10.0 mi SW 5.8 mph - N/A   Unknown
7:15 PM 24.8 °F 17.9 °F 21.2 °F 86% 30.37 in 10.0 mi SW 5.8 mph - N/A   Unknown
7:35 PM 24.8 °F 16.9 °F 21.2 °F 86% 30.38 in 10.0 mi SW 6.9 mph - N/A   Unknown
7:55 PM 26.6 °F 19.1 °F 21.2 °F 80% 30.38 in 10.0 mi WSW 6.9 mph - N/A   Unknown
8:15 PM 26.6 °F 20.0 °F 23.0 °F 86% 30.37 in 10.0 mi WSW 5.8 mph - N/A   Unknown
8:35 PM 24.8 °F 19.1 °F 19.4 °F 80% 30.38 in 10.0 mi SW 4.6 mph - N/A   Unknown
8:55 PM 26.6 °F 19.1 °F 21.2 °F 80% 30.38 in 10.0 mi SW 6.9 mph - N/A   Unknown
9:15 PM 26.6 °F 17.5 °F 21.2 °F 80% 30.38 in 10.0 mi WSW 9.2 mph - N/A   Unknown
9:35 PM 26.6 °F 19.1 °F 21.2 °F 80% 30.38 in 10.0 mi SW 6.9 mph - N/A   Unknown
9:55 PM 26.6 °F 19.1 °F 21.2 °F 80% 30.37 in 10.0 mi SW 6.9 mph - N/A   Unknown
10:15 PM 28.4 °F 21.2 °F 24.8 °F 86% 30.37 in 10.0 mi SW 6.9 mph - N/A   Unknown
10:35 PM 28.4 °F 21.2 °F 24.8 °F 86% 30.37 in 10.0 mi SW 6.9 mph - N/A   Unknown
10:55 PM 26.6 °F 21.2 °F 19.4 °F 74% 30.37 in 10.0 mi SW 4.6 mph - N/A   Unknown
11:15 PM 26.6 °F 19.1 °F 24.8 °F 93% 30.37 in 10.0 mi SW 6.9 mph - N/A   Unknown
11:35 PM 24.8 °F - 23.0 °F 93% 30.36 in 10.0 mi Calm Calm - N/A   Unknown
11:55 PM 21.2 °F 13.6 °F 21.2 °F 100% 30.37 in 10.0 mi South 5.8 mph - N/A   Unknown